Regional Weather Roundup
Issued by NWS San Diego, CA

Home | Current Version | Previous Version | Text Only | Print | Product List | Glossary On
Versions: 1 2 3 4 5 6 7 8 9 10 11 12 13 14 15 16 17 18 19 20 21 22 23 24 25 26 27 28 29 30 31 32 33 34 35 36 37 38 39 40 41 42 43 44 45 46 47 48 49 50
000
ASUS46 KSGX 202211
RWRSGX

SAN DIEGO HOURLY WEATHER ROUNDUP
NATIONAL WEATHER SERVICE SAN DIEGO CA
300 PM PDT THU JUL 20 2017

NOTE: "FAIR" INDICATES FEW OR NO CLOUDS BELOW 12,000 FEET WITH NO
SIGNIFICANT WEATHER AND/OR OBSTRUCTIONS TO VISIBILITY.

CAZ042-043-060-061-PZZ750-775-202300-

GREATER SAN DIEGO AREA

CITY           SKY/WX    TMP DP  RH WIND       PRES   REMARKS
SAN DIEGO AP   MOSUNNY   76  65  68 SW10      30.00F
NATIONAL CITY    N/A     78  68  72 SW3       30.01F
CHULA VISTA      N/A     77  69  74 W3        29.91F
IMPERIAL BEACH PTSUNNY   74  64  71 SW10      30.00F
BROWN FIELD    SUNNY     77  65  66 W13       29.99F
MIRAMAR MCAS   MOSUNNY   86  61  42 SW10      29.98F
MONTGOMERY FLD SUNNY     80  63  55 SW12      29.99F
GILLESPIE FLD  SUNNY     84  63  48 SW9       29.97F

$$

NORTH SAN DIEGO COUNTY

CITY           SKY/WX    TMP DP  RH WIND       PRES   REMARKS
CAMP PENDLETON MOSUNNY   71  62  73 SW9       29.96F
OCEANSIDE AP   SUNNY     80  67  64 W13       29.96F
OCEANSIDE HBR    N/A     74  68  81 SW3       30.00F
VISTA            N/A     80  67  65 SW3       29.94F
CARLSBAD       SUNNY     77  66  68 SW9       29.98F
DEL MAR          N/A     76  68  75 SW1       30.00F
LA JOLLA SCRIP   N/A     73  68  83 SW5       29.98F
FALLBROOK        N/A     85  65  49 SW3       29.96F
ESCONDIDO        N/A     87  68  53 SW2       29.97F
SAN MARCOS       N/A     79  65  62 SW9       29.99F
POWAY            N/A     86  68  53 W8        29.97F

$$

EAST SAN DIEGO COUNTY

CITY           SKY/WX    TMP DP  RH WIND       PRES   REMARKS
RAMONA         SUNNY     87  65  47 W12       30.00F
SANTEE LAKES     N/A     83  66  56 SW10      29.95F
LA MESA          N/A     80  65  59 W2        29.91F
JAMUL            N/A     84  67  56 CALM      29.96F
DESCANSO N       N/A     83  64  51 W7        29.86F
MT. LAGUNA OBS   N/A     75  55  49 W3        29.82F
CAMPO            N/A     92  60  34 W14G21    29.99F

$$

ORANGE COUNTY AND THE LOS ANGELES BASIN

CITY           SKY/WX    TMP DP  RH WIND       PRES   REMARKS
JOHN WAYNE AP  MOSUNNY   81  61  50 SW10      29.96F
LAKE FOREST FR   N/A     91  59  34 W3        29.84F
HUNTINGTON BCH   N/A     79  69  71 SW5       29.98F
LOS ALAMITOS   SUNNY     81  65  57 SW12      29.96F
FULLERTON      SUNNY     85  59  41 S10       29.95F
LONG BEACH     SUNNY     81  63  54 SW8       29.96F
L.A. AP        MOSUNNY   79  66  64 W15       29.97F
L.A. DOWNTOWN  SUNNY     84  65  52 W6        29.95F

$$

THE INLAND EMPIRE

CITY           SKY/WX    TMP DP  RH WIND       PRES   REMARKS
CORONA         SUNNY     91  63  39 W13G21    29.94F
CHINO          MOSUNNY   97  54  23 W12       29.95F HX  95
ONTARIO        MOSUNNY   95  54  25 W13       29.95F
SAN BERNARDINO MOSUNNY   97  55  24 W9        29.96F HX  95
RIVERSIDE AP   SUNNY     95  59  30 W13G18    29.94F
MORENO VALLEY    N/A     96  62  32 W2        28.11F HX  97
MARCH ARB      SUNNY     93  59  31 NW12      29.97F
HORSETHIEF CYN   N/A     92  55  28 NE8       29.92F
PERRIS           N/A     93  61  34 S6        29.96F
HEMET EAST       N/A     94  48  20 W3        29.97F
FRENCH VALLEY  FAIR      91  57  31 S14       29.98F
TEMECULA         N/A     90  63  40 SW8       30.00F

$$

SAN BERNARDINO AND RIVERSIDE COUNTY MOUNTAINS

CITY           SKY/WX    TMP DP  RH WIND       PRES   REMARKS
BIG BEAR AP    SUNNY     77  30  18 S7        30.31F
ANGELUS OAKS     N/A     78  53  41 CALM      29.82F
PINE COVE        N/A     77  49  36 NW6       29.93F

$$

SOUTHERN DESERT INCLUDING THE COACHELLA VALLEY

CITY           SKY/WX    TMP DP  RH WIND       PRES   REMARKS
PALM SPRINGS   SUNNY    106  55  18 E12       29.84F HX 105
THOUSAND PALMS   N/A    106  62  23 SE7       29.80F HX 108
PALM DESERT      N/A    106  67  28 S6        30.48R HX 112
THERMAL        SUNNY    106  60  22 SE8       29.78F HX 107
BLYTHE         MOSUNNY  107  60  21 S15G25    29.82F HX 108
IMPERIAL AP    PTSUNNY  107  66  26 E8        29.79F HX 112
EL CENTRO NAS  MOSUNNY  105  62  24 E10       29.81F HX 107
YUMA AZ        MOSUNNY  104  60  23 VRB5      29.82F HX 105
MEXICALI       SUNNY    104  54  18 E7        29.83F HX 102

$$

UPPER DESERT

CITY           SKY/WX    TMP DP  RH WIND       PRES   REMARKS
VICTORVILLE AP MOSUNNY   97  34  11 S9G18     30.01F
HESPERIA         N/A     91  46  21 SW12      29.97F
PALMDALE       SUNNY     96  26   8 SW18G28   30.00F
LANCASTER      SUNNY     97  35  11 SW20G29   29.99F
EDWARDS AFB    MOSUNNY   98  28   8 SW16G26   29.95F
DAGGETT        SUNNY    105  34   8 N8        29.89F HX  98
29 PALMS N     MOSUNNY  104  41  11 SW17G25   29.99F HX  99
NEEDLES        SUNNY    107  54  17 SE7       29.84F HX 105

$$

REGIONAL REPORTS

CITY           SKY/WX    TMP DP  RH WIND       PRES   REMARKS
SANTA BARBARA  SUNNY     73  60  63 SW7       29.99F
SANDBERG       SUNNY     88  39  17 W10G22    30.19F
LAS VEGAS NV   PTSUNNY   97  54  23 S12       29.94F HX  95
PHOENIX AZ     MOSUNNY  101  61  26 NW8       29.86F HX 102
TIJUANA        MOSUNNY   79  64  61 W10       30.01F
ENSENADA NW      N/A     75  32  20 W2        29.97F

$$

OFFSHORE ISLANDS

CITY           SKY/WX    TMP DP  RH WIND       PRES   REMARKS
CATALINA ARPT  SUNNY     77  62  59 W7        30.03F
SAN CLEMENTE I MOSUNNY   71  60  68 W8        30.01F
SAN NICOLAS IS MOSUNNY   69  60  73 NW13      30.01F

$$

MARINE AND OFFSHORE BUOY REPORTS

STATION/POSITION SKY/WX   TEMP    WIND        PRES    VSBY  SWELL
                          AIR SEA DIR/SP/G                  HT/PER/DIR
                          (F)     (DEG/KT/KT) (MB)    (MI)  (FT/S/D)
TANNER BANKS               62 64  310/ 16/ 17 1016.1F         5/320/ 9
S CLEMENTE BASIN              73  260/  6/  8 1015.8F         5/200/16
SAN NICOLAS IS.               64                N/A           3/190/15
SO. S. ROSA ISLA           59 64  300/ 17/ 21 1016.1F         3/210/15
W. S. BARBARA CH           57 59  310/ 21/ 27 1016.1F         3/300/ 8
M. S. BARBARA CH           64 67  260/ 12/ 14 1016.5F         2/240/ 8
S. MONICA BASIN               72  280/  8/ 10 1015.3F         3/190/16
S PEDRO CHANNEL               74                N/A           2/160/11
CMP PENDLETON NS              76                N/A           2/220/17
OCEANSIDE OFFSHR              76                N/A           2/190/15
TORREY PINES OTR              75                N/A           2/190/17
SAN DIEGO BAY                 77              1016.0F
POINT LOMA SOUTH              73                N/A           3/190/15

$$




USA.gov is the U.S. government's official web portal to all federal, state and local government web resources and services.